Date String (YYYY-MM-DD hh:mm:ss) UTC,Instrument flags,absolute air pressure of the measurement (hPa),sample flow rate (lpm),inlet stack bypass flow (lpm),air temperature of the measurement (°C),ambient temperature measured by the external sensor (°C),aerosol sample conditioner tube jacket temperature (°C),OPC LED temperature (°C),internal box temperature (°C),relative humidity of the measurement (%),span deviation,mass concentration of particles derived from Lorenz-Mie calculation of OPC scattering (μg/m³),mass concentration of particles derived from Lorenz-Mie calculation of OPC scattering (μg/m³),mass concentration of particles derived from Lorenz-Mie calculation of OPC scattering (μg/m³)
DateTimeUTC,F1_M11,P_M11,Q1_M11,Q2_M11,T1_M11,T2_M11,T3_M11,T4_M11,T5_M11,U1_M11,ZSPAN_M11,X2_M11,X0_M11,X1_M11
2024-03-26 21:00:00,SystemResetWarning,0820.7,5.00,000.00,021.0,020.3,000.0,029.5,022.8,15.3,0000.0,0013.66,0017.84,0013.27
2024-03-26 21:01:00,SystemResetWarning,0820.7,5.01,000.00,021.0,020.3,000.0,029.5,022.8,15.3,0000.1,0013.59,0017.83,0013.20
2024-03-26 21:02:00,SystemResetWarning,0820.7,5.01,000.00,021.0,020.3,000.0,029.5,022.8,15.4,0000.3,0013.51,0017.77,0013.11
2024-03-26 21:03:00,SystemResetWarning,0820.7,5.00,000.00,021.0,020.3,000.0,029.5,022.8,15.4,0000.5,0013.45,0017.60,0013.03
2024-03-26 21:04:00,SystemResetWarning,0820.7,4.99,000.00,021.0,020.3,000.0,029.5,022.8,15.5,0000.4,0013.42,0017.06,0012.99
2024-03-26 21:05:00,SystemResetWarning,0820.8,4.99,000.00,021.0,020.3,000.0,029.5,022.8,15.5,0000.1,0013.35,0017.22,0012.92
2024-03-26 21:06:00,SystemResetWarning,0820.7,4.99,000.00,021.0,020.3,000.0,029.5,022.8,15.4,0000.1,0013.31,0016.81,0012.88
2024-03-26 21:07:00,SystemResetWarning,0820.7,5.00,000.00,021.0,020.3,000.0,029.5,022.8,15.8,0000.3,0013.25,0017.62,0012.82
2024-03-26 21:08:00,SystemResetWarning,0820.7,5.00,000.00,021.0,020.3,000.0,029.5,022.8,15.4,0000.3,0013.20,0017.93,0012.77
2024-03-26 21:09:00,SystemResetWarning,0820.7,5.01,000.00,021.0,020.2,000.0,029.5,022.7,15.3,0000.5,0013.12,0017.97,0012.69
2024-03-26 21:10:00,SystemResetWarning,0820.7,5.00,000.00,021.0,020.2,000.0,029.5,022.7,15.4,0001.3,0013.07,0017.93,0012.64
2024-03-26 21:11:00,SystemResetWarning,0820.6,5.00,000.00,021.0,020.2,000.0,029.5,022.7,15.5,0001.7,0013.05,0017.22,0012.64
2024-03-26 21:12:00,SystemResetWarning,0820.6,5.00,000.00,021.0,020.2,000.0,029.5,022.8,15.5,0002.1,0013.03,0017.02,0012.64
2024-03-26 21:13:00,SystemResetWarning,0820.6,5.00,000.00,021.0,020.2,000.0,029.5,022.8,15.4,0002.2,0013.03,0017.03,0012.63
2024-03-26 21:14:00,SystemResetWarning,0820.5,4.99,000.00,021.0,020.2,000.0,029.5,022.8,15.6,0002.0,0012.98,0016.78,0012.62
2024-03-26 21:15:00,SystemResetWarning,0820.6,5.00,000.00,021.0,020.2,000.0,029.5,022.7,15.7,0002.4,0012.96,0017.24,0012.59
2024-03-26 21:16:00,SystemResetWarning,0820.6,5.00,000.00,020.9,020.1,000.0,029.5,022.7,15.6,0002.6,0013.00,0017.28,0012.60
2024-03-26 21:17:00,SystemResetWarning,0820.6,5.00,000.00,020.9,020.1,000.0,029.5,022.7,15.6,0002.4,0012.99,0017.30,0012.58
2024-03-26 21:18:00,SystemResetWarning,0820.7,5.01,000.00,020.9,020.1,000.0,029.5,022.7,15.9,0002.4,0012.99,0016.63,0012.59
2024-03-26 21:19:00,SystemResetWarning,0820.7,5.00,000.00,020.9,020.1,000.0,029.5,022.7,15.9,0002.4,0012.97,0016.62,0012.60
2024-03-26 21:20:00,SystemResetWarning,0820.7,5.01,000.00,020.9,020.0,000.0,029.5,022.6,16.4,0002.2,0012.97,0016.78,0012.61
2024-03-26 21:21:00,SystemResetWarning,0820.7,5.00,000.00,020.9,020.0,000.0,029.5,022.6,16.1,0001.8,0012.93,0017.46,0012.58
2024-03-26 21:22:00,SystemResetWarning,0820.7,4.99,000.00,020.9,020.0,000.0,029.5,022.6,16.2,0001.6,0012.86,0017.65,0012.52
2024-03-26 21:23:00,SystemResetWarning,0820.7,5.00,000.00,020.8,019.9,000.0,029.5,022.6,15.9,0001.5,0012.83,0017.65,0012.47
2024-03-26 21:24:00,SystemResetWarning,0820.7,5.00,000.00,020.8,019.9,000.0,029.5,022.6,16.0,0001.0,0012.84,0017.67,0012.47
2024-03-26 21:25:00,SystemResetWarning,0820.7,5.00,000.00,020.8,019.9,000.0,029.5,022.6,16.0,0000.8,0012.90,0017.97,0012.50
2024-03-26 21:26:00,SystemResetWarning,0820.7,5.01,000.00,020.8,019.9,000.0,029.4,022.6,16.2,0000.5,0012.96,0017.86,0012.55
2024-03-26 21:27:00,SystemResetWarning,0820.7,5.00,000.00,020.8,019.9,000.0,029.4,022.5,16.0,0000.2,0012.98,0017.82,0012.59
2024-03-26 21:28:00,SystemResetWarning,0820.7,5.00,000.00,020.8,019.9,000.0,029.4,022.5,15.7,0000.3,0013.01,0018.53,0012.61
2024-03-26 21:29:00,SystemResetWarning,0820.7,4.99,000.00,020.8,019.9,000.0,029.4,022.5,15.7,0000.3,0013.01,0018.60,0012.62
2024-03-26 21:30:00,SystemResetWarning,0820.7,4.99,000.00,020.7,019.9,000.0,029.4,022.5,15.8,0000.3,0013.06,0018.47,0012.62
2024-03-26 21:31:00,SystemResetWarning,0820.8,5.01,000.00,020.7,019.9,000.0,029.4,022.5,15.8,0000.4,0013.09,0018.38,0012.64
2024-03-26 21:32:00,SystemResetWarning,0820.8,5.01,000.00,020.7,019.9,000.0,029.4,022.5,15.8,0000.5,0013.11,0017.71,0012.68
2024-03-26 21:33:00,SystemResetWarning,0820.8,5.01,000.00,020.7,019.9,000.0,029.4,022.5,15.9,0000.4,0013.17,0017.41,0012.73
2024-03-26 21:34:00,SystemResetWarning,0820.7,4.99,000.00,020.7,019.8,000.0,029.4,022.5,16.0,0000.0,0013.21,0017.41,0012.80
2024-03-26 21:35:00,SystemResetWarning,0820.8,5.00,000.00,020.7,019.8,000.0,029.4,022.5,16.1,0000.2,0013.22,0017.40,0012.82
2024-03-26 21:36:00,SystemResetWarning,0820.8,5.00,000.00,020.7,019.8,000.0,029.3,022.4,16.2,0000.6,0013.22,0017.37,0012.83
2024-03-26 21:37:00,SystemResetWarning,0820.8,4.99,000.00,020.7,019.8,000.0,029.3,022.4,15.7,0000.4,0013.23,0017.41,0012.85
2024-03-26 21:38:00,SystemResetWarning,0820.8,5.00,000.00,020.6,019.8,000.0,029.3,022.4,15.8,0000.0,0013.24,0017.87,0012.88
2024-03-26 21:39:00,SystemResetWarning,0820.8,5.00,000.00,020.6,019.8,000.0,029.3,022.4,16.0,-000.3,0013.27,0017.69,0012.90
2024-03-26 21:40:00,SystemResetWarning,0820.8,5.00,000.00,020.6,019.8,000.0,029.3,022.4,16.0,-000.3,0013.27,0017.71,0012.89
2024-03-26 21:41:00,SystemResetWarning,0820.8,5.01,000.00,020.6,019.7,000.0,029.3,022.4,16.0,-000.1,0013.22,0017.47,0012.88
2024-03-26 21:42:00,SystemResetWarning,0820.8,5.00,000.00,020.6,019.7,000.0,029.3,022.4,16.0,-000.3,0013.18,0017.63,0012.87
2024-03-26 21:43:00,SystemResetWarning,0820.8,5.00,000.00,020.6,019.7,000.0,029.3,022.4,16.2,-000.4,0013.18,0017.69,0012.84
2024-03-26 21:44:00,SystemResetWarning,0820.8,5.00,000.00,020.6,019.7,000.0,029.3,022.4,16.3,-000.2,0013.13,0017.90,0012.79
2024-03-26 21:45:00,SystemResetWarning,0820.8,5.00,000.00,020.6,019.7,000.0,029.2,022.3,16.5,0000.1,0013.09,0018.11,0012.72
2024-03-26 21:46:00,SystemResetWarning,0820.8,5.00,000.00,020.6,019.7,000.0,029.2,022.3,16.7,0000.2,0013.02,0018.05,0012.66
2024-03-26 21:47:00,SystemResetWarning,0820.8,4.99,000.00,020.6,019.7,000.0,029.2,022.3,16.4,0000.0,0012.96,0018.02,0012.61
2024-03-26 21:48:00,SystemResetWarning,0820.7,5.00,000.00,020.5,019.7,000.0,029.2,022.3,16.7,0000.2,0012.87,0018.18,0012.51
2024-03-26 21:49:00,SystemResetWarning,0820.6,5.01,000.00,020.5,019.7,000.0,029.2,022.3,16.8,0000.6,0012.78,0017.89,0012.40
2024-03-26 21:50:00,SystemResetWarning,0820.6,5.01,000.00,020.5,019.7,000.0,029.2,022.3,17.0,0001.1,0012.67,0017.42,0012.28
2024-03-26 21:51:00,SystemResetWarning,0820.6,5.00,000.00,020.5,019.7,000.0,029.2,022.3,17.1,0001.0,0012.62,0017.46,0012.20
2024-03-26 21:52:00,SystemResetWarning,0820.6,5.00,000.00,020.5,019.6,000.0,029.2,022.3,17.1,0000.9,0012.57,0017.41,0012.13
2024-03-26 21:53:00,SystemResetWarning,0820.6,5.00,000.00,020.5,019.6,000.0,029.2,022.3,17.1,0001.1,0012.51,0016.97,0012.05
2024-03-26 21:54:00,SystemResetWarning,0820.5,4.99,000.00,020.5,019.6,000.0,029.2,022.3,17.1,0001.0,0012.46,0017.22,0012.00
2024-03-26 21:55:00,SystemResetWarning,0820.6,5.00,000.00,020.5,019.7,000.0,029.2,022.3,16.9,0000.8,0012.43,0016.92,0011.97
2024-03-26 21:56:00,SystemResetWarning,0820.5,5.00,000.00,020.5,019.7,000.0,029.1,022.3,16.9,0000.6,0012.39,0017.10,0011.94
2024-03-26 21:57:00,SystemResetWarning,0820.6,5.00,000.00,020.5,019.6,000.0,029.1,022.3,17.0,0000.6,0012.37,0017.13,0011.90
2024-03-26 21:58:00,SystemResetWarning,0820.6,5.00,000.00,020.5,019.6,000.0,029.1,022.3,16.7,0000.8,0012.34,0016.97,0011.85
2024-03-26 21:59:00,SystemResetWarning,0820.6,5.00,000.00,020.5,019.6,000.0,029.1,022.2,16.8,0000.9,0012.34,0016.48,0011.82
